TimeEST,TemperatureF,Dew PointF,Humidity,Sea Level PressureIn,VisibilityMPH,Wind Direction,Wind SpeedMPH,Gust SpeedMPH,PrecipitationIn,Events,Conditions,WindDirDegrees,DateUTC
12:54 AM,27.0,19.0,72,30.25,10.0,WNW,3.5,-,N/A,,Overcast,290,2012-11-28 05:54:00
1:54 AM,27.0,19.0,72,30.26,10.0,West,8.1,-,N/A,,Overcast,280,2012-11-28 06:54:00
2:54 AM,27.0,19.0,72,30.26,10.0,West,4.6,-,N/A,,Overcast,270,2012-11-28 07:54:00
3:54 AM,27.0,19.0,72,30.25,10.0,WNW,10.4,-,N/A,,Overcast,290,2012-11-28 08:54:00
4:54 AM,27.0,19.0,72,30.25,10.0,West,5.8,-,N/A,,Overcast,260,2012-11-28 09:54:00
5:54 AM,27.0,19.0,72,30.26,10.0,West,8.1,-,N/A,,Overcast,280,2012-11-28 10:54:00
6:54 AM,26.1,18.0,71,30.27,10.0,West,11.5,-,N/A,,Overcast,280,2012-11-28 11:54:00
7:54 AM,26.1,18.0,71,30.28,10.0,West,8.1,-,N/A,,Overcast,270,2012-11-28 12:54:00
8:54 AM,27.0,19.0,72,30.29,10.0,WSW,9.2,16.1,N/A,,Overcast,250,2012-11-28 13:54:00
9:54 AM,28.0,19.0,69,30.29,10.0,West,13.8,25.3,N/A,,Overcast,280,2012-11-28 14:54:00
10:41 AM,28.4,17.6,64,30.20,10.0,West,15.0,26.5,N/A,,Scattered Clouds,270,2012-11-28 15:41:00
10:54 AM,30.0,18.0,61,30.29,10.0,West,18.4,26.5,N/A,,Partly Cloudy,270,2012-11-28 15:54:00
11:12 AM,30.2,19.4,64,30.21,10.0,West,18.4,23.0,N/A,,Mostly Cloudy,270,2012-11-28 16:12:00
11:27 AM,30.2,17.6,60,30.21,10.0,West,15.0,25.3,N/A,,Scattered Clouds,280,2012-11-28 16:27:00
11:54 AM,32.0,19.0,59,30.28,10.0,West,13.8,24.2,N/A,,Mostly Cloudy,270,2012-11-28 16:54:00
12:54 PM,32.0,18.0,56,30.28,10.0,WNW,15.0,-,N/A,,Clear,290,2012-11-28 17:54:00
1:54 PM,32.0,17.1,54,30.26,10.0,West,17.3,24.2,N/A,,Clear,280,2012-11-28 18:54:00
2:54 PM,32.0,16.0,52,30.26,10.0,West,11.5,23.0,N/A,,Mostly Cloudy,270,2012-11-28 19:54:00
3:54 PM,32.0,16.0,52,30.27,10.0,West,12.7,23.0,N/A,,Scattered Clouds,270,2012-11-28 20:54:00
4:54 PM,30.9,15.1,52,30.27,10.0,West,12.7,-,N/A,,Clear,270,2012-11-28 21:54:00
5:54 PM,30.0,15.1,54,30.29,10.0,West,13.8,-,N/A,,Clear,280,2012-11-28 22:54:00
6:54 PM,28.9,15.1,56,30.31,10.0,West,12.7,19.6,N/A,,Clear,280,2012-11-28 23:54:00
7:54 PM,28.9,15.1,56,30.33,10.0,West,13.8,-,N/A,,Clear,280,2012-11-29 00:54:00
8:54 PM,28.0,15.1,58,30.33,10.0,West,9.2,-,N/A,,Clear,280,2012-11-29 01:54:00
9:54 PM,27.0,15.1,61,30.34,10.0,West,4.6,-,N/A,,Partly Cloudy,270,2012-11-29 02:54:00
10:54 PM,28.0,17.1,63,30.35,10.0,West,6.9,-,N/A,,Overcast,270,2012-11-29 03:54:00
11:54 PM,28.0,19.0,69,30.35,10.0,WSW,5.8,-,N/A,,Overcast,250,2012-11-29 04:54:00